Beckley, WV

3:39 PM EDT on July 24, 2017 (GMT -0400)
Raleigh County Memorial

Weather History for KBKW - January, 2012

Change the Weather History Date:

Monday, January 2, 2012

  Actual Average Record
Temperature  
Mean Temperature 24 °F 31 °F  
Max Temperature 33 °F 39 °F 72 °F (1916)
Min Temperature 15 °F 23 °F -12 °F (1898)
Degree Days  
Heating Degree Days 41 34  
Month to date heating degree days 61 68  
Since 1 July heating degree days 1807 2161  
Cooling Degree Days 0 0  
Month to date cooling degree days 0 0  
Year to date cooling degree days 0 0  
Moisture  
Dew Point 14 °F    
Average Humidity 64    
Maximum Humidity 88    
Minimum Humidity 39    
Precipitation  
Precipitation 0.09 in 0.09 in 1.25 in (1937)
Month to date precipitation 0.21 0.18  
Year to date precipitation 0.21 0.18  
Snow  
Snow 4.50 in - - ()
Month to date snowfall 4.5  
Since 1 September snowfall 12.4  
Snow Depth 0.00 in    
Sea Level Pressure  
Sea Level Pressure 29.99 in    
Wind  
Wind Speed 13 mph (WNW)    
Max Wind Speed 24 mph    
Max Gust Speed 38 mph    
Visibility 4 miles    
Events Fog , Snow    
T = Trace of Precipitation, MM = Missing Value Source: NWS Daily Summary

Daily Weather History Graph

Daily Weather History Graph

Search for Another Location

Airport or City:

Trip Planner

Search our weather history database for the weather conditions in past years. The results will help you decide how hot, cold, wet, or windy it might be!

Date:

Astronomy

Jan. 02, 2012 Rise Set
Actual Time 7:40 AM EST 5:16 PM EST
Civil Twilight 7:10 AM EST 5:46 PM EST
Nautical Twilight 6:38 AM EST 6:18 PM EST
Astronomical Twilight 6:06 AM EST 6:50 PM EST
Moon 12:30 PM EST (1/2) 1:34 AM EST (1/2)
Length of Visible Light 10h 35m
Length of Day
9h 36m
Waxing Gibbous, 63% of the Moon is Illuminated
Jan 2
Waxing Gibbous
Jan 9
Full
Jan 16
Last Quarter
Jan 23
New
Jan 30
First Quarter

Hourly Weather History & Observations

Time (EST) Temp. Windchill Dew Point Humidity Pressure Visibility Wind Dir Wind Speed Gust Speed Precip Events Conditions
12:51 AM 32.0 °F 22.1 °F 19.4 °F 60% 29.98 in 10.0 mi WNW 13.8 mph 20.7 mph N/A   Mostly Cloudy
1:51 AM 30.0 °F 20.0 °F 16.0 °F 56% 30.04 in 10.0 mi WNW 12.7 mph 20.7 mph 0.00 in   Mostly Cloudy
2:51 AM 30.0 °F 17.5 °F 8.1 °F 40% 30.02 in 10.0 mi West 19.6 mph 31.1 mph N/A   Partly Cloudy
3:51 AM 28.0 °F 17.0 °F 8.1 °F 43% 30.01 in 10.0 mi WNW 13.8 mph 20.7 mph N/A   Clear
4:51 AM 27.0 °F 13.5 °F 8.1 °F 45% 30.01 in 10.0 mi West 19.6 mph 38.0 mph N/A   Clear
5:51 AM 25.0 °F 14.8 °F 10.9 °F 55% 30.03 in 10.0 mi WNW 10.4 mph 16.1 mph N/A   Partly Cloudy
6:51 AM 26.1 °F 15.0 °F 12.0 °F 55% 30.04 in 10.0 mi WNW 12.7 mph 24.2 mph N/A   Overcast
7:51 AM 25.0 °F 12.6 °F 12.0 °F 58% 30.05 in 10.0 mi WNW 15.0 mph 29.9 mph N/A   Overcast
8:51 AM 25.0 °F 12.6 °F 12.0 °F 58% 30.06 in 10.0 mi West 15.0 mph 19.6 mph 0.00 in   Overcast
9:51 AM 25.0 °F 15.5 °F 14.0 °F 63% 30.06 in 6.0 mi West 9.2 mph 19.6 mph 0.00 in Snow Light Snow
10:51 AM 26.1 °F 15.0 °F 15.1 °F 63% 30.04 in 9.0 mi West 12.7 mph 18.4 mph 0.00 in   Overcast
11:46 AM 24.8 °F 12.4 °F 15.8 °F 69% 29.94 in 2.5 mi West 15.0 mph 21.9 mph 0.00 in Snow Light Snow
11:51 AM 24.1 °F 13.7 °F 16.0 °F 71% 30.03 in 2.5 mi WNW 10.4 mph - 0.00 in Snow Light Snow
11:54 AM 24.8 °F 14.0 °F 15.8 °F 69% 29.93 in 3.0 mi West 11.5 mph - 0.00 in Snow Light Snow
12:06 PM 24.8 °F 14.0 °F 15.8 °F 69% 29.92 in 2.5 mi West 11.5 mph - 0.00 in Snow Light Snow
12:25 PM 24.8 °F 15.3 °F 17.6 °F 74% 29.91 in 1.8 mi West 9.2 mph - 0.00 in Snow Light Snow
12:42 PM 24.8 °F 14.6 °F 19.4 °F 80% 29.91 in 0.5 mi West 10.4 mph 19.6 mph 0.00 in Snow Snow
12:47 PM 24.8 °F 15.3 °F 19.4 °F 80% 29.91 in 0.2 mi WNW 9.2 mph - 0.00 in Fog , Snow Snow
12:51 PM 23.0 °F 10.6 °F 19.9 °F 88% 30.01 in 0.2 mi NW 13.8 mph 18.4 mph 0.01 in Fog , Snow Heavy Snow
1:12 PM 23.0 °F 9.2 °F 17.6 °F 80% 29.91 in 1.2 mi West 17.3 mph 25.3 mph 0.01 in Snow Light Snow
1:16 PM 23.0 °F 8.7 °F 17.6 °F 80% 29.91 in 3.0 mi West 18.4 mph 25.3 mph 0.01 in Snow Light Snow
1:19 PM 23.0 °F 8.7 °F 15.8 °F 74% 29.91 in 6.0 mi West 18.4 mph 25.3 mph 0.01 in Snow Light Snow
1:34 PM 24.8 °F 13.4 °F 15.8 °F 69% 29.91 in 10.0 mi West 12.7 mph 25.3 mph 0.01 in   Overcast
1:51 PM 25.0 °F 14.2 °F 15.1 °F 66% 30.00 in 10.0 mi West 11.5 mph 21.9 mph 0.01 in   Overcast
2:05 PM 24.8 °F 13.4 °F 15.8 °F 69% 29.91 in 10.0 mi West 12.7 mph 19.6 mph N/A   Overcast
2:20 PM 24.8 °F 12.4 °F 15.8 °F 69% 29.90 in 5.0 mi West 15.0 mph 27.6 mph 0.00 in Snow Light Snow
2:26 PM 24.8 °F 11.9 °F 15.8 °F 69% 29.91 in 2.5 mi West 16.1 mph 24.2 mph 0.00 in Snow Light Snow
2:44 PM 24.8 °F 14.0 °F 17.6 °F 74% 29.91 in 7.0 mi West 11.5 mph 18.4 mph 0.00 in Snow Light Snow
2:51 PM 24.1 °F 11.5 °F 15.1 °F 69% 30.01 in 4.0 mi West 15.0 mph 23.0 mph 0.00 in Snow Light Snow
3:51 PM 25.0 °F 12.6 °F 12.0 °F 58% 30.01 in 7.0 mi West 15.0 mph 23.0 mph 0.00 in Snow Light Snow
3:55 PM 23.0 °F 8.0 °F 15.8 °F 74% 29.91 in 0.8 mi West 20.7 mph 33.4 mph 0.00 in Snow Light Snow
4:02 PM 21.2 °F 7.3 °F 17.6 °F 86% 29.91 in 0.2 mi NW 16.1 mph 31.1 mph 0.00 in Fog , Snow Snow
4:18 PM 21.2 °F 10.1 °F 17.6 °F 86% 29.92 in 0.2 mi NW 10.4 mph 19.6 mph 0.01 in Fog , Snow Snow
4:27 PM 21.2 °F 13.6 °F 19.4 °F 93% 29.92 in 0.8 mi WNW 5.8 mph - 0.02 in Snow Light Snow
4:34 PM 21.2 °F 11.7 °F 17.6 °F 86% 29.92 in 1.5 mi NW 8.1 mph - 0.02 in Snow Light Snow
4:41 PM 21.2 °F 10.1 °F 17.6 °F 86% 29.93 in 1.8 mi NW 10.4 mph - 0.02 in Snow Light Snow
4:51 PM 21.0 °F 10.6 °F 17.1 °F 85% 30.05 in 0.8 mi WNW 9.2 mph - 0.02 in Snow Light Snow
4:58 PM 21.2 °F 9.5 °F 17.6 °F 86% 29.93 in 1.0 mi WNW 11.5 mph 17.3 mph 0.00 in Snow Light Snow
5:02 PM 21.2 °F 9.5 °F 15.8 °F 80% 29.94 in 3.0 mi WNW 11.5 mph - 0.00 in Snow Light Snow
5:31 PM 21.2 °F 9.5 °F 15.8 °F 80% 29.95 in 1.8 mi NW 11.5 mph 18.4 mph 0.00 in Snow Light Snow
5:38 PM 19.4 °F 5.5 °F 15.8 °F 86% 29.95 in 0.5 mi NW 15.0 mph 21.9 mph 0.00 in Fog , Snow Snow
5:43 PM 19.4 °F 6.6 °F 15.8 °F 86% 29.95 in 0.2 mi NW 12.7 mph 23.0 mph 0.00 in Fog , Snow Heavy Snow
5:51 PM 19.9 °F 5.2 °F 16.0 °F 85% 30.08 in 0.2 mi WNW 17.3 mph 24.2 mph 0.03 in Fog , Snow Heavy Snow
5:54 PM 19.4 °F 5.5 °F 15.8 °F 86% 29.95 in 0.5 mi WNW 15.0 mph 24.2 mph 0.00 in Snow Snow
5:57 PM 19.4 °F 7.2 °F 15.8 °F 86% 29.95 in 1.0 mi NW 11.5 mph 24.2 mph 0.00 in Snow Light Snow
6:03 PM 19.4 °F 7.9 °F 15.8 °F 86% 29.96 in 3.0 mi WNW 10.4 mph 20.7 mph 0.00 in Snow Light Snow
6:22 PM 19.4 °F 9.5 °F 15.8 °F 86% 29.96 in 2.0 mi WNW 8.1 mph - 0.00 in Snow Light Snow
6:28 PM 19.4 °F 10.4 °F 15.8 °F 86% 29.97 in 1.2 mi WNW 6.9 mph - 0.00 in Snow Light Snow
6:32 PM 19.4 °F 8.6 °F 15.8 °F 86% 29.97 in 1.0 mi NW 9.2 mph - 0.00 in Snow Light Snow
6:39 PM 19.4 °F 2.5 °F 15.8 °F 86% 29.97 in 0.5 mi NNW 23.0 mph 32.2 mph 0.01 in Fog , Snow Snow
6:45 PM 19.4 °F 6.6 °F 12.2 °F 74% 29.97 in 1.0 mi WNW 12.7 mph 32.2 mph 0.01 in Snow Light Snow
6:48 PM 19.4 °F 7.2 °F 12.2 °F 74% 29.97 in 3.0 mi NW 11.5 mph 29.9 mph 0.01 in Snow Light Snow
6:51 PM 19.0 °F 6.8 °F 12.9 °F 77% 30.10 in 7.0 mi NW 11.5 mph 23.0 mph 0.01 in Snow Light Snow
7:35 PM 19.4 °F 9.5 °F 12.2 °F 74% 29.99 in 9.0 mi West 8.1 mph - 0.00 in   Overcast
7:49 PM 19.4 °F 6.0 °F 12.2 °F 74% 29.99 in 2.0 mi NW 13.8 mph - 0.00 in Snow Light Snow
7:51 PM 18.0 °F 4.2 °F 12.0 °F 78% 30.12 in 1.0 mi NW 13.8 mph - 0.00 in Snow Light Snow
7:55 PM 17.6 °F 5.7 °F 12.2 °F 79% 29.99 in 0.8 mi NW 10.4 mph - 0.00 in Snow Light Snow
8:00 PM 17.6 °F 4.3 °F 12.2 °F 79% 29.99 in 1.0 mi NW 12.7 mph 20.7 mph 0.00 in Snow Light Snow
8:29 PM 17.6 °F 5.7 °F 12.2 °F 79% 30.00 in 3.0 mi NW 10.4 mph - 0.00 in Snow Light Snow
8:51 PM 17.1 °F 3.6 °F 10.9 °F 77% 30.13 in 9.0 mi NW 12.7 mph - 0.00 in Snow Light Snow
8:59 PM 17.6 °F 7.3 °F 10.4 °F 73% 30.00 in 4.0 mi WNW 8.1 mph - 0.00 in Snow Light Snow
9:04 PM 17.6 °F 8.2 °F 12.2 °F 79% 30.00 in 1.8 mi WNW 6.9 mph - 0.00 in Snow Light Snow
9:23 PM 17.6 °F 5.7 °F 12.2 °F 79% 30.00 in 1.0 mi WNW 10.4 mph - 0.00 in Snow Light Snow
9:36 PM 15.8 °F 1.4 °F 12.2 °F 86% 30.00 in 2.0 mi NW 13.8 mph 24.2 mph 0.01 in Snow Light Snow
9:51 PM 16.0 °F 2.3 °F 10.9 °F 81% 30.13 in 2.5 mi NW 12.7 mph - 0.01 in Snow Light Snow
10:03 PM 15.8 °F 1.4 °F 10.4 °F 79% 30.00 in 3.0 mi WNW 13.8 mph - 0.00 in Snow Light Snow
10:11 PM 15.8 °F 2.1 °F 10.4 °F 79% 30.00 in 1.8 mi NW 12.7 mph - 0.00 in Snow Light Snow
10:27 PM 15.8 °F 4.2 °F 10.4 °F 79% 30.00 in 3.0 mi WNW 9.2 mph 19.6 mph 0.00 in Snow Light Snow
10:36 PM 15.8 °F 1.4 °F 10.4 °F 79% 30.00 in 2.5 mi NW 13.8 mph 19.6 mph N/A Snow Light Snow
10:51 PM 16.0 °F 3.6 °F 10.9 °F 81% 30.14 in 2.0 mi NW 10.4 mph 20.7 mph 0.00 in Snow Light Snow
11:00 PM 15.8 °F 4.2 °F 10.4 °F 79% 30.01 in 1.0 mi NW 9.2 mph 18.4 mph 0.00 in Snow Light Snow
11:08 PM 15.8 °F 7.2 °F 12.2 °F 86% 30.00 in 0.8 mi WNW 5.8 mph - 0.00 in Snow Light Snow
11:17 PM 15.8 °F 6.1 °F 12.2 °F 86% 30.00 in 1.2 mi WNW 6.9 mph - 0.00 in Snow Light Snow
11:23 PM 15.8 °F 4.2 °F 12.2 °F 86% 30.00 in 0.8 mi WNW 9.2 mph - 0.00 in Snow Light Snow
11:26 PM 15.8 °F 5.1 °F 12.2 °F 86% 30.00 in 1.0 mi WNW 8.1 mph - 0.00 in Snow Light Snow
11:51 PM 16.0 °F 3.6 °F 10.9 °F 81% 30.14 in 2.0 mi WNW 10.4 mph - 0.00 in Snow Light Snow